Weather History for KPVC - January, 2013

Change the Weather History Date:

Wednesday, January 2, 2013

  Actual Average Record
Temperature  
Mean Temperature 26 °F -  
Max Temperature 32 °F - - ()
Min Temperature 19 °F - - ()
Degree Days  
Heating Degree Days 38    
Moisture  
Dew Point 13 °F    
Average Humidity 57    
Maximum Humidity 69    
Minimum Humidity 43    
Precipitation  
Precipitation 0.00 in - - ()
Sea Level Pressure  
Sea Level Pressure 29.96 in    
Wind  
Wind Speed 20 mph (WNW)    
Max Wind Speed 24 mph    
Max Gust Speed 34 mph    
Visibility 10 miles    
Events      
T = Trace of Precipitation, MM = Missing Value Source: NWS Daily Summary

Daily Weather History Graph

Daily Weather History Graph

Search for Another Location

Airport or City:

Trip Planner

Search our weather history database for the weather conditions in past years. The results will help you decide how hot, cold, wet, or windy it might be!

Date:

Astronomy

Jan. 02, 2013 Rise Set
Actual Time 7:09 AM EST 4:21 PM EST
Civil Twilight 6:37 AM EST 4:52 PM EST
Nautical Twilight 6:02 AM EST 5:27 PM EST
Astronomical Twilight 5:28 AM EST 6:01 PM EST
Moon 9:56 PM EST (1/2) 9:43 AM EST (1/2)
Length of Visible Light 10h 14m
Length of Day
9h 11m
Waning Gibbous, 75% of the Moon is Illuminated
Jan 2
Waning Gibbous
Jan 4
Last Quarter
Jan 11
New
Jan 18
First Quarter
Jan 26
Full

Hourly Weather History & Observations

Time (EST) Temp. Windchill Dew Point Humidity Pressure Visibility Wind Dir Wind Speed Gust Speed Precip Events Conditions
12:55 AM 24.8 °F 10.3 °F 12.2 °F 59% 29.92 in 10.0 mi NW 20.7 mph 28.8 mph N/A   Clear
1:15 AM 24.8 °F 9.6 °F 10.4 °F 54% 29.92 in 10.0 mi NW 23.0 mph 28.8 mph N/A   Clear
1:35 AM 24.8 °F 10.3 °F 10.4 °F 54% 29.93 in 10.0 mi WNW 20.7 mph 28.8 mph N/A   Clear
1:36 AM 24.8 °F 9.6 °F 10.4 °F 54% 29.93 in 10.0 mi WNW 23.0 mph 31.1 mph N/A   Clear
1:55 AM 24.8 °F 10.0 °F 10.4 °F 54% 29.93 in 10.0 mi NW 21.9 mph 28.8 mph N/A   Clear
2:15 AM 23.0 °F 8.0 °F 10.4 °F 59% 29.93 in 10.0 mi NW 20.7 mph 27.6 mph N/A   Clear
2:55 AM 23.0 °F 8.3 °F 12.2 °F 63% 29.95 in 10.0 mi NW 19.6 mph 26.5 mph N/A   Partly Cloudy
3:15 AM 23.0 °F 8.3 °F 10.4 °F 59% 29.95 in 10.0 mi WNW 19.6 mph 25.3 mph N/A   Partly Cloudy
3:55 AM 23.0 °F 8.3 °F 12.2 °F 63% 29.94 in 10.0 mi NW 19.6 mph 26.5 mph N/A   Partly Cloudy
4:16 AM 23.0 °F 8.3 °F 12.2 °F 63% 29.93 in 10.0 mi WNW 19.6 mph 26.5 mph N/A   Partly Cloudy
4:36 AM 23.0 °F 8.3 °F 12.2 °F 63% 29.93 in 10.0 mi WNW 19.6 mph 26.5 mph N/A   Partly Cloudy
4:55 AM 23.0 °F 9.2 °F 12.2 °F 63% 29.92 in 10.0 mi NW 17.3 mph 26.5 mph N/A   Clear
5:15 AM 23.0 °F 9.2 °F 12.2 °F 63% 29.93 in 10.0 mi NW 17.3 mph 21.9 mph N/A   Clear
7:15 AM 24.8 °F 12.9 °F 12.2 °F 59% 29.92 in 10.0 mi WNW 13.8 mph 24.2 mph N/A   Clear
8:15 AM 24.8 °F 11.9 °F 15.8 °F 69% 29.94 in 10.0 mi West 16.1 mph 20.7 mph N/A   Scattered Clouds
8:35 AM 24.8 °F 12.4 °F 15.8 °F 69% 29.94 in 10.0 mi West 15.0 mph 20.7 mph N/A   Partly Cloudy
8:55 AM 24.8 °F 12.9 °F 14.0 °F 64% 29.94 in 10.0 mi West 13.8 mph 18.4 mph N/A   Clear
9:15 AM 24.8 °F 13.4 °F 14.0 °F 64% 29.95 in 10.0 mi West 12.7 mph - N/A   Clear
9:35 AM 26.6 °F 14.7 °F 15.8 °F 64% 29.95 in 10.0 mi WNW 15.0 mph 20.7 mph N/A   Clear
9:55 AM 26.6 °F 15.7 °F 15.8 °F 64% 29.95 in 10.0 mi WNW 12.7 mph - N/A   Clear
10:35 AM 26.6 °F 14.3 °F 14.0 °F 59% 29.94 in 10.0 mi West 16.1 mph 21.9 mph N/A   Clear
10:55 AM 28.4 °F 15.8 °F 14.0 °F 55% 29.94 in 10.0 mi West 18.4 mph 21.9 mph N/A   Mostly Cloudy
11:35 AM 30.2 °F 17.8 °F 14.0 °F 51% 29.92 in 10.0 mi West 19.6 mph 26.5 mph N/A   Mostly Cloudy
12:15 PM 30.2 °F 17.4 °F 15.8 °F 55% 29.90 in 10.0 mi West 20.7 mph 26.5 mph N/A   Clear
1:15 PM 32.0 °F 19.5 °F 15.8 °F 51% 29.90 in 10.0 mi WNW 21.9 mph 28.8 mph N/A   Clear
1:55 PM 30.2 °F 17.4 °F 12.2 °F 47% 29.91 in 10.0 mi NW 20.7 mph 29.9 mph N/A   Overcast
2:15 PM 30.2 °F 17.1 °F 15.8 °F 55% 29.91 in 10.0 mi NW 21.9 mph 33.4 mph N/A   Overcast
2:35 PM 30.2 °F 17.4 °F 15.8 °F 55% 29.92 in 10.0 mi WNW 20.7 mph 26.5 mph N/A   Overcast
2:55 PM 30.2 °F 17.8 °F 14.0 °F 51% 29.93 in 10.0 mi NW 19.6 mph 28.8 mph N/A   Mostly Cloudy
3:15 PM 30.2 °F 17.4 °F 12.2 °F 47% 29.94 in 10.0 mi WNW 20.7 mph 28.8 mph N/A   Mostly Cloudy
3:35 PM 30.2 °F 17.8 °F 14.0 °F 51% 29.95 in 10.0 mi WNW 19.6 mph 27.6 mph N/A   Mostly Cloudy
4:35 PM 28.4 °F 15.8 °F 15.8 °F 59% 29.97 in 10.0 mi WNW 18.4 mph 27.6 mph N/A   Mostly Cloudy
4:55 PM 28.4 °F 14.7 °F 14.0 °F 55% 29.98 in 10.0 mi WNW 21.9 mph 27.6 mph N/A   Scattered Clouds
5:15 PM 28.4 °F 15.8 °F 15.8 °F 59% 29.99 in 10.0 mi NW 18.4 mph 25.3 mph N/A   Mostly Cloudy
6:55 PM 28.4 °F 15.1 °F 8.6 °F 43% 30.02 in 10.0 mi WNW 20.7 mph 32.2 mph N/A   Mostly Cloudy
7:15 PM 26.6 °F 11.7 °F 8.6 °F 47% 30.02 in 10.0 mi NW 24.2 mph 34.5 mph N/A   Scattered Clouds
7:55 PM 26.6 °F 12.4 °F 10.4 °F 51% 30.02 in 10.0 mi NW 21.9 mph 32.2 mph N/A   Scattered Clouds
8:15 PM 26.6 °F 12.4 °F 12.2 °F 55% 30.02 in 10.0 mi WNW 21.9 mph 29.9 mph N/A   Partly Cloudy
8:55 PM 26.6 °F 13.1 °F 10.4 °F 51% 30.04 in 10.0 mi NW 19.6 mph 27.6 mph N/A   Mostly Cloudy
9:16 PM 24.8 °F 10.7 °F 10.4 °F 54% 30.04 in 10.0 mi NW 19.6 mph 26.5 mph N/A   Mostly Cloudy
9:35 PM 24.8 °F 11.5 °F 10.4 °F 54% 30.05 in 10.0 mi WNW 17.3 mph 27.6 mph N/A   Mostly Cloudy
9:55 PM 24.8 °F 10.3 °F 12.2 °F 59% 30.05 in 10.0 mi NW 20.7 mph 24.2 mph N/A   Overcast
10:16 PM 23.0 °F 7.6 °F 8.6 °F 54% 30.06 in 10.0 mi NW 21.9 mph 32.2 mph N/A   Scattered Clouds
11:35 PM 21.2 °F 6.4 °F 8.6 °F 58% 30.07 in 10.0 mi WNW 18.4 mph 27.6 mph N/A   Scattered Clouds
11:55 PM 19.4 °F 3.2 °F 10.4 °F 68% 30.07 in 10.0 mi NW 20.7 mph 28.8 mph N/A   Scattered Clouds